"Pseudo-MPEC" for C1HNR32

Created 2019 Dec 6 13:07:15 UT using Find_Orb

Click here for an explanation of pseudo-MPECs

 
 Astrometry: 
     C1HNR32  C2019 12 02.47616 10 09 41.37 +32 58 06.2    ~C2C7 21.3 GVNEOCPG96
     C1HNR32  C2019 12 02.48137 10 09 40.93 +32 57 50.5    ~C2C7 21.4 GVNEOCPG96
     C1HNR32  C2019 12 02.49180 10 09 40.07 +32 57 20.3    ~C2C7 21.8 GVNEOCPG96
     C1HNR32  C2019 12 02.51013 10 09 38.62 +32 56 26.4    ~C2Cb 21.1 GVNEOCPV06
     C1HNR32  C2019 12 02.51250 10 09 38.45 +32 56 19.8    ~C2Cb 21.5 GVNEOCPV06
     C1HNR32  C2019 12 02.51488 10 09 38.26 +32 56 12.6    ~C2Cb 21.4 GVNEOCPV06
     C1HNR32  C2019 12 02.51726 10 09 38.06 +32 56 05.6    ~C2Cb 21.5 GVNEOCPV06
     C1HNR32  C2019 12 04.19005 10 07 28.60 +31 32 46.0    ~C4AM 21.5 VVNEOCP033
     C1HNR32  C2019 12 04.19363 10 07 28.30 +31 32 34.6    ~C4AM 21.3 VVNEOCP033
     C1HNR32  C2019 12 04Cf$3uF8X\i%9FGI9EA;V@ITb,Q2wMxpd[^`[vr@R1@AstrometryF51
     C1HNR32  C2019 12 04y4redacted;ZDVOTPR.9^_%\f#87AMu'/K'k,l2+F)6O]g(EZ@_9F51
     C1HNR32  C2019 12 04VKpo7vclick7?+=sf.%2tdmtG)J^JR)^LhQ)nGR0_NX4?+'0gVNZF51
     C1HNR32 KC2019 12 05Pu=YB,bY+2byY:crh?P8[WtExPsXnu['qgjRudbNCVkpyeFhereUL01
     C1HNR32 KC2019 12 05#\2w'd'UBbIrCQiduueJ_'R]8wS7bSl@5Yq=CyL@au8^[UWA%p#1L01
     C1HNR32 KC2019 12 05S;/,Rq`D7OW/F!.rforAIH3aNHc^%+cP.u)I^jexplanationUU*L01
     C1HNR32  C2019 12 06.37140 10 04 21.96 +29 40 12.3    ~C69M 21.1 GVNEOCPG96
     C1HNR32  C2019 12 06.37284 10 04 21.83 +29 40 08.0    ~C69M 21.3 GVNEOCPG96
     C1HNR32  C2019 12 06.37429 10 04 21.66 +29 40 04.1    ~C69M 21.3 GVNEOCPG96
     C1HNR32  C2019 12 06.37574 10 04 21.55 +29 39 59.2    ~C69M 21.1 GVNEOCPG96

Station data:
(033) Karl Schwarzschild Observatory, Tautenburg  (N50.980140 E11.711240)
   Germany. 1.3-m Schmidt.
(F51) Pan-STARRS 1, Haleakala  (N20.707235 W156.255910)  US/Hawaii.
   Observers N. Primak, A. Schultz, S. Watters, J. Thiel, T. Goggia. Measurer
   PS1 Science Consortium. 1.8-m Ritchey-Chrétien + CCD.
(G96) Mt. Lemmon Survey  (N32.442754 W110.788720)  US/Arizona.  Observers T.
   A. Pruyne, B. M. Africano, E. J. Christensen, G. A. Farneth, D. C. Fuls,
   A. R. Gibbs, A. D. Grauer, H. Gröller, J. A. Johnson, R. A. Kowalski, S.
   M. Larson, G. J. Leonard, D. Rankin, R. L. Seaman, F. C. Shelly. 1.5-m
   reflector + 10K CCD.
(L01) Višnjan Observatory, Tičan  (N45.290900 E13.749300)  Croatia.
   Observers K. Korlević, E. Pettarin. Measurer E. Pettarin. 1.0-m f/2.9
   reflector + CCD.
(V06) Catalina Sky Survey-Kuiper  (N32.416847 W110.732550)  US/Arizona.
   Observers T. A. Pruyne, B. M. Africano, E. J. Christensen, G. A. Farneth,
   D. C. Fuls, A. R. Gibbs, A. D. Grauer, H. Gröller, J. A. Johnson, R. A.
   Kowalski, S. M. Larson, G. J. Leonard, D. Rankin, R. L. Seaman, F. C.
   Shelly. 1.55-m reflector + CCD.

Orbital elements:  C1HNR32
   Perihelion 2019 Nov 9.779841 +/- 0.457 TT = 18:42:58 (JD 2458797.279841)
Epoch 2019 Dec  6.0 TT = JDT 2458823.5   Earth MOID: 0.4182   Ju: 0.1502
M   3.35076606 +/- 0.25             (J2000 ecliptic)          AutoNEOCP
n   0.12779350 +/- 0.00712          Peri.  147.13455 +/- 0.39
a   3.90358395 +/- 0.145            Node   287.97512 +/- 0.09
e   0.6582459 +/- 0.0115            Incl.   45.61308 +/- 0.27
P   7.71                   H 20.1   G  0.15   U  9.4  
q 1.33406550 +/- 0.00449    Q 6.47310240 +/- 0.269
From 19 observations 2019 Dec. 2-6; mean residual 0".24
Residuals in arcseconds: 
191202 G96  .65+  .15+    191204 033  .04+  .47+    191205 L01  .10-  .19-    
191202 G96  .26+  .31-    191204 033  .09+  .06-    191206 G96  .06+  .36-    
191202 G96  .25-  .03+    191204 F51  .01+  .13-    191206 G96  .13+  .15-    
191202 V06  .31-  .14-    191204 F51  .21-  .10-    191206 G96  .31-  .50+    
191202 V06  .10-  .22+    191204 F51  .10-  .04-    191206 G96  .03+  .14+    
191202 V06  .13-  .00     191205 L01  .50+  .13-    
191202 V06  .28-  .01-    191205 L01  .12-  .05+    

Ephemerides (geocentric):
Date (UTC) HH   RA              Dec         delta   r     elong  mag " sig PA
---- -- -- --  -------------   -----------  ------ ------ -----  --- ---- ---
2019 12 06 13  10 04 05.760   +29 31 16.57  .67232 1.3724 110.3 21.6 .265 108
2019 12 06 14  10 04 01.943   +29 29 04.43  .67201 1.3725 110.4 21.6 .279 108
2019 12 06 15  10 03 58.119   +29 26 52.19  .67170 1.3726 110.4 21.6 .293 107
2019 12 06 16  10 03 54.287   +29 24 39.85  .67140 1.3728 110.5 21.6 .307 107
2019 12 06 17  10 03 50.447   +29 22 27.40  .67109 1.3729 110.5 21.6 .322 107
2019 12 06 18  10 03 46.600   +29 20 14.85  .67079 1.3730 110.6 21.6 .337 107
2019 12 06 19  10 03 42.745   +29 18 02.20  .67048 1.3731 110.6 21.6 .352 107
2019 12 06 20  10 03 38.882   +29 15 49.44  .67018 1.3732 110.7 21.6 .367 107
2019 12 06 21  10 03 35.011   +29 13 36.58  .66987 1.3734 110.7 21.6 .383 107
2019 12 06 22  10 03 31.132   +29 11 23.62  .66957 1.3735 110.7 21.6 .399 107
2019 12 06 23  10 03 27.246   +29 09 10.55  .66927 1.3736 110.8 21.6 .415 107
2019 12 07 00  10 03 23.352   +29 06 57.39  .66896 1.3737 110.8 21.6 .432 107
2019 12 07 01  10 03 19.450   +29 04 44.11  .66866 1.3738 110.9 21.6 .448 107
2019 12 07 02  10 03 15.540   +29 02 30.74  .66836 1.3739 110.9 21.6 .465 107
2019 12 07 03  10 03 11.622   +29 00 17.26  .66806 1.3741 111.0 21.6 .483 107
2019 12 07 04  10 03 07.697   +28 58 03.68  .66775 1.3742 111.0 21.6 .500 106
2019 12 07 05  10 03 03.764   +28 55 49.99  .66745 1.3743 111.1 21.6 .518 106
2019 12 07 06  10 02 59.823   +28 53 36.20  .66715 1.3744 111.1 21.6 .536 106
2019 12 07 07  10 02 55.874   +28 51 22.31  .66685 1.3745 111.1 21.6 .555 106
2019 12 07 08  10 02 51.918   +28 49 08.31  .66655 1.3747 111.2 21.6 .573 106
2019 12 07 09  10 02 47.954   +28 46 54.21  .66625 1.3748 111.2 21.6 .592 106
2019 12 07 10  10 02 43.982   +28 44 40.01  .66595 1.3749 111.3 21.5 .611 106
2019 12 07 11  10 02 40.002   +28 42 25.70  .66565 1.3750 111.3 21.5 .631 106
2019 12 07 12  10 02 36.014   +28 40 11.29  .66535 1.3751 111.4 21.5 .651 106
2019 12 07 13  10 02 32.019   +28 37 56.77  .66505 1.3753 111.4 21.5 .671 106
2019 12 07 14  10 02 28.016   +28 35 42.15  .66475 1.3754 111.5 21.5 .691 106
2019 12 07 15  10 02 24.005   +28 33 27.43  .66445 1.3755 111.5 21.5 .712 106
2019 12 07 16  10 02 19.986   +28 31 12.60  .66415 1.3756 111.6 21.5 .733 106
2019 12 07 17  10 02 15.959   +28 28 57.67  .66386 1.3758 111.6 21.5 .754 106
2019 12 07 18  10 02 11.925   +28 26 42.63  .66356 1.3759 111.6 21.5 .775 106
2019 12 07 19  10 02 07.882   +28 24 27.49  .66326 1.3760 111.7 21.5 .797 106
2019 12 07 20  10 02 03.832   +28 22 12.25  .66296 1.3761 111.7 21.5 .819 106
2019 12 07 21  10 01 59.775   +28 19 56.90  .66267 1.3762 111.8 21.5 .841 105
2019 12 07 22  10 01 55.709   +28 17 41.45  .66237 1.3764 111.8 21.5 .864 105
2019 12 07 23  10 01 51.636   +28 15 25.89  .66208 1.3765 111.9 21.5 .887 105
2019 12 08 00  10 01 47.554   +28 13 10.23  .66178 1.3766 111.9 21.5 .910 105
2019 12 08 01  10 01 43.465   +28 10 54.46  .66148 1.3767 112.0 21.5 .933 105
2019 12 08 02  10 01 39.368   +28 08 38.59  .66119 1.3769 112.0 21.5 .957 105
2019 12 08 03  10 01 35.264   +28 06 22.62  .66089 1.3770 112.1 21.5 .981 105
2019 12 08 04  10 01 31.151   +28 04 06.54  .66060 1.3771 112.1 21.5 1.01 105
2019 12 08 05  10 01 27.031   +28 01 50.36  .66031 1.3772 112.1 21.5 1.03 105
2019 12 08 06  10 01 22.903   +27 59 34.07  .66001 1.3773 112.2 21.5 1.05 105
2019 12 08 07  10 01 18.767   +27 57 17.68  .65972 1.3775 112.2 21.5 1.08 105
2019 12 08 08  10 01 14.623   +27 55 01.18  .65943 1.3776 112.3 21.5 1.11 105
2019 12 08 09  10 01 10.472   +27 52 44.58  .65913 1.3777 112.3 21.5 1.13 105
2019 12 08 10  10 01 06.312   +27 50 27.88  .65884 1.3778 112.4 21.5 1.16 105
2019 12 08 11  10 01 02.145   +27 48 11.07  .65855 1.3780 112.4 21.5 1.18 105
2019 12 08 12  10 00 57.970   +27 45 54.15  .65826 1.3781 112.5 21.5 1.21 105